Regional Weather Roundup
Issued by NWS Jackson, KY

Home | Current Version | Previous Version | Graphics & Text | Print | Product List | Glossary On
Versions: 1 2 3 4 5 6 7 8 9 10 11 12 13 14 15 16 17 18 19 20 21 22 23 24 25 26 27 28 29 30 31 32 33 34 35 36 37 38 39 40 41 42 43 44 45 46 47 48 49 50
000
ASUS43 KJKL 270210
RWRJKL

EAST KENTUCKY HOURLY WEATHER ROUNDUP
NATIONAL WEATHER SERVICE JACKSON KY
1000 PM EDT FRI AUG 26 2016

NOTE: "FAIR" INDICATES FEW OR NO CLOUDS BELOW 12,000 FEET WITH
NO SIGNIFICANT WEATHER AND/OR OBSTRUCTIONS TO VISIBILITY.

* THESE REPORTS ARE NOT UNDER NWS QUALITY CONTROL AND MAY NOT
  REPORT WEATHER SUCH AS PRECIPITATION AND FOG.

KYZ079-080-083-085-087-088-110-112-115-119-120-270300
...EASTERN KENTUCKY...

CITY           SKY/WX    TMP DP  RH WIND       PRES   REMARKS
JACKSON        CLEAR     79  67  66 CALM      30.16R
LONDON         CLEAR     79  69  71 CALM      30.14R
SOMERSET*      CLEAR     75  72  88 CALM      30.13S
MONTICELLO*    MOCLDY   N/A N/A N/A N12       30.13S
WILLIAMSBURG*  CLEAR     77  73  88 CALM      30.14R
MIDDLESBORO*   PTCLDY    76  73  91 CALM      30.15R
HARLAN APT*      N/A     73  70  88 CALM      30.18R
PIKE CO APT*     N/A     79  72  79 CALM      30.16S
BIG SANDY APT* CLEAR     77  74  91 CALM      30.15S
MOREHEAD APT*  CLEAR     79  72  78 CALM      30.17R
$$

KYZ035-036-041-042-044-050-067-078-099-270300
...CENTRAL KENTUCKY...

CITY           SKY/WX    TMP DP  RH WIND       PRES   REMARKS
MT STERLING*   CLEAR     75  72  88 CALM      30.16R
FLEMING/MASON* CLEAR     80  72  74 CALM      30.16R
DANVILLE*      CLEAR     73  72  94 CALM      30.13S
LEXINGTON      CLEAR     80  70  71 NE5       30.13R
FRANKFORT      CLEAR     79  71  76 CALM      30.11R
LOUISVILLE     CLOUDY    84  66  54 SE3       30.08R
LEBANON*         N/A     79  72  78 E3        30.12R
GLASGOW*       PTCLDY    77  76  99 CALM      30.08F
BOWLING GREEN  CLOUDY    81  75  82 NE5       30.07S
$$

KYZ091>093-OHZ055-061-077-WVZ005-015-034-035-042-270300
...SOUTHERN OHIO/WEST VIRGINIA...

CITY           SKY/WX    TMP DP  RH WIND       PRES   REMARKS
COVINGTON      PTCLDY    79  69  71 NE3       30.13R
COLUMBUS       PTCLDY    78  68  71 VRB3      30.15R
DAYTON         TSTM      74  65  73 E6        30.17R
WILMINGTON     PTCLDY    75  73  93 NE6       30.15R
HUNTINGTON     CLEAR     80  75  84 CALM      30.13R
CHARLESTON     PTCLDY    78  74  87 CALM      30.14R
PINEVILLE*     CLEAR     73  69  87 MISG      30.24R FOG
BECKLEY        CLEAR     73  68  84 CALM      30.24R
BLUEFIELD      CLEAR     73  65  75 W5        30.26R
LOGAN CO APT*    N/A     79  73  83 CALM      30.17S
$$

VAZ002-007-008-TNZ017-027-036-066-071-270300
...SOUTHWEST VIRGINIA/EAST TENNESSEE...

CITY           SKY/WX    TMP DP  RH WIND       PRES   REMARKS
WISE*          CLEAR     75  59  57 CALM      30.26R
JONESVILLE*      N/A     75  73  94 CALM      30.18R
ABINGDON*      CLEAR     77  69  76 CALM      30.21R
BRISTOL        PTCLDY    79  70  74 CALM      30.16R
MORRISTOWN*    CLEAR     82  70  65 CALM      30.13R
SEVIERVILLE*   CLEAR     81  70  69 CALM      30.11R
KNOXVILLE      CLOUDY    84  67  56 NE5       30.09R
CROSSVILLE     PTCLDY    77  72  84 CALM      30.17R
NASHVILLE      CLOUDY    86  74  67 NE3       30.07R HX  94
$$

...KEY TO REMARKS...
VSB - VISIBILITY IN MILES
WCI - WIND CHILL INDEX
HX  - HEAT INDEX

$$



USA.gov is the U.S. government's official web portal to all federal, state and local government web resources and services.